This is the latest recevied weather packets stored in our database for station/object NI4CE-10. If no packets are shown the sender has not sent any weather packets the latest 1 day(s).
| Time | Temp. | Humidity | Pressure | Rain* | Wind** | Luminosity | Snow |
|---|---|---|---|---|---|---|---|
| 1778040944 | 21.67° C | 100% | 1019 hPa | 0 mm | 0.89 m/s, 92° | - | - |
| 1778040699 | 21.67° C | 100% | 1019 hPa | 0 mm | 1.34 m/s, 119° | - | - |
| 1778040644 | 21.67° C | 100% | 1019 hPa | 0 mm | 1.34 m/s, 119° | - | - |
| 1778040435 | 21.67° C | 100% | 1019 hPa | 0 mm | 0.89 m/s, 102° | - | - |
| 1778040344 | 21.67° C | 100% | 1019 hPa | 0 mm | 0.89 m/s, 102° | - | - |
| 1778040124 | 21.67° C | 100% | 1018.9 hPa | 0 mm | 0.45 m/s, 123° | - | - |
| 1778040044 | 21.67° C | 100% | 1018.9 hPa | 0 mm | 0.45 m/s, 123° | - | - |
| 1778039884 | 22.22° C | 100% | 1019.1 hPa | 0 mm | 0.89 m/s, 95° | - | - |
| 1778039744 | 22.22° C | 100% | 1019 hPa | 0 mm | 0.45 m/s, 91° | - | - |
| 1778039444 | 22.22° C | 100% | 1019.1 hPa | 0 mm | 0.89 m/s, 95° | - | - |
| 1778039146 | 22.22° C | 100% | 1019.1 hPa | 0 mm | 0.89 m/s, 71° | - | - |
| 1778038844 | 22.78° C | 100% | 1019.2 hPa | 0 mm | 0.89 m/s, 111° | - | - |
| 1778038625 | 22.78° C | 100% | 1019.1 hPa | 0 mm | 0.89 m/s, 113° | - | - |
| 1778038544 | 22.78° C | 100% | 1019.2 hPa | 0 mm | 1.34 m/s, 80° | - | - |
| 1778038244 | 22.78° C | 100% | 1019.1 hPa | 0 mm | 0.89 m/s, 113° | - | - |
| 1778038207 | 22.78° C | 100% | 1019.2 hPa | 0 mm | 1.34 m/s, 149° | - | - |
| 1778037944 | 22.78° C | 100% | 1019.2 hPa | 0 mm | 1.34 m/s, 149° | - | - |
| 1778037754 | 23.33° C | 100% | 1019.1 hPa | 0 mm | 1.34 m/s, 92° | - | - |
| 1778037644 | 23.33° C | 100% | 1019.1 hPa | 0 mm | 0.89 m/s, 150° | - | - |
| 1778037344 | 23.33° C | 100% | 1019.1 hPa | 0 mm | 1.34 m/s, 92° | - | - |
| 1778037130 | 23.33° C | 100% | 1019.1 hPa | 0 mm | 0.89 m/s, 104° | - | - |
| 1778037044 | 23.33° C | 100% | 1019.1 hPa | 0 mm | 0.89 m/s, 104° | - | - |
| 1778036822 | 23.33° C | 100% | 1019 hPa | 0 mm | 1.79 m/s, 95° | - | - |
| 1778036745 | 23.33° C | 100% | 1019 hPa | 0 mm | 1.79 m/s, 95° | - | - |
| 1778036660 | 23.89° C | 100% | 1019 hPa | 0 mm | 1.79 m/s, 125° | - | - |
* Rain latest hour (hover to see other rain measurements)
** Current wind speed in m/s (hover to see current wind gust speed)